| time (UTC) | temp F | wind direction | speed knots | gust knots | rain 1hr in | rain 24hr in | rain mn in | humidity % | barometer mb |
| 20260831134204 | 60 | 251 | 6.1 | 10.4 | 0.00 | 0.76 | 0.02 | 78 | 1014.6 |
| 20260831133703 | 60 | 265 | 5.2 | 13.0 | 0.00 | 0.76 | 0.02 | 78 | 1014.6 |
| 20260831133204 | 60 | 256 | 4.3 | 10.4 | 0.00 | 0.76 | 0.02 | 79 | 1014.6 |
| 20260831132705 | 60 | 264 | 4.3 | 8.7 | 0.00 | 0.76 | 0.02 | 79 | 1014.5 |
| 20260831132204 | 60 | 266 | 6.1 | 10.4 | 0.00 | 0.76 | 0.02 | 79 | 1014.4 |
| 20260831131705 | 60 | 259 | 6.1 | 11.3 | 0.00 | 0.76 | 0.02 | 79 | 1014.5 |
| 20260831131205 | 60 | 249 | 6.1 | 11.3 | 0.00 | 0.76 | 0.02 | 79 | 1014.4 |
| 20260831130704 | 60 | 254 | 5.2 | 8.7 | 0.00 | 0.76 | 0.02 | 79 | 1014.4 |
| 20260831130203 | 60 | 251 | 7.0 | 10.4 | 0.00 | 0.76 | 0.02 | 78 | 1014.4 |
| 20260831125204 | 61 | 262 | 5.2 | 10.4 | 0.00 | 0.78 | 0.02 | 77 | 1014.3 |
| 20260831124703 | 61 | 269 | 5.2 | 10.4 | 0.00 | 0.78 | 0.02 | 77 | 1014.3 |
| 20260831124204 | 61 | 261 | 5.2 | 10.4 | 0.00 | 0.78 | 0.02 | 77 | 1014.2 |
| 20260831123704 | 61 | 267 | 6.1 | 10.4 | 0.00 | 0.78 | 0.02 | 77 | 1014.2 |
| 20260831123204 | 61 | 245 | 4.3 | 8.7 | 0.00 | 0.78 | 0.02 | 78 | 1014.3 |
| 20260831121704 | 61 | 276 | 5.2 | 10.4 | 0.00 | 0.78 | 0.02 | 79 | 1014.2 |
| 20260831121204 | 61 | 297 | 4.3 | 11.3 | 0.00 | 0.78 | 0.02 | 81 | 1014.1 |
| 20260831115704 | 60 | 251 | 7.8 | 11.3 | 0.00 | 0.78 | 0.02 | 80 | 1014.3 |
| 20260831114705 | 60 | 257 | 5.2 | 8.7 | 0.00 | 0.78 | 0.02 | 81 | 1014.2 |
| 20260831113704 | 60 | 273 | 5.2 | 10.4 | 0.00 | 0.78 | 0.02 | 81 | 1014.1 |
| 20260831113204 | 60 | 260 | 5.2 | 10.4 | 0.00 | 0.78 | 0.02 | 81 | 1014.0 |
| 20260831112704 | 60 | 266 | 5.2 | 10.4 | 0.00 | 0.78 | 0.02 | 81 | 1014.0 |
| 20260831112203 | 60 | 270 | 5.2 | 12.2 | 0.00 | 0.78 | 0.02 | 82 | 1014.0 |
| 20260831111704 | 59 | 275 | 3.5 | 11.3 | 0.00 | 0.78 | 0.02 | 82 | 1013.9 |
| 20260831111204 | 59 | 279 | 5.2 | 8.7 | 0.00 | 0.78 | 0.02 | 83 | 1013.9 |
| 20260831110704 | 58 | 278 | 4.3 | 10.4 | 0.00 | 0.78 | 0.02 | 82 | 1013.9 |
| 20260831110204 | 58 | 278 | 4.3 | 7.8 | 0.00 | 0.78 | 0.02 | 82 | 1013.8 |
| 20260831105704 | 58 | 288 | 6.1 | 10.4 | 0.00 | 0.78 | 0.02 | 82 | 1013.8 |
| 20260831105204 | 58 | 272 | 4.3 | 8.7 | 0.00 | 0.78 | 0.02 | 82 | 1013.7 |
| 20260831104705 | 59 | 294 | 4.3 | 8.7 | 0.00 | 0.78 | 0.02 | 83 | 1013.7 |
| 20260831104204 | 59 | 267 | 3.5 | 7.8 | 0.00 | 0.78 | 0.02 | 84 | 1013.7 |
| 20260831103704 | 58 | 277 | 5.2 | 8.7 | 0.00 | 0.78 | 0.02 | 84 | 1013.7 |
| 20260831103204 | 58 | 275 | 3.5 | 7.8 | 0.00 | 0.78 | 0.02 | 84 | 1013.7 |
| 20260831102704 | 58 | 275 | 1.7 | 2.6 | 0.00 | 0.78 | 0.02 | 84 | 1013.5 |
| 20260831102204 | 58 | 300 | 2.6 | 5.2 | 0.00 | 0.78 | 0.02 | 84 | 1013.7 |
| 20260831101704 | 58 | 298 | 4.3 | 7.8 | 0.00 | 0.78 | 0.02 | 83 | 1013.7 |
| 20260831101205 | 58 | 280 | 6.1 | 8.7 | 0.00 | 0.78 | 0.02 | 83 | 1013.5 |
| 20260831100704 | 58 | 269 | 2.6 | 7.0 | 0.00 | 0.78 | 0.02 | 85 | 1013.6 |
| 20260831100204 | 57 | 278 | 3.5 | 6.1 | 0.00 | 0.78 | 0.02 | 85 | 1013.6 |
| 20260831095704 | 57 | 260 | 4.3 | 10.4 | 0.00 | 0.78 | 0.02 | 85 | 1013.4 |
| 20260831095204 | 57 | 279 | 5.2 | 11.3 | 0.00 | 0.78 | 0.02 | 86 | 1013.3 |
| 20260831094704 | 57 | 277 | 4.3 | 10.4 | 0.00 | 0.78 | 0.02 | 86 | 1013.4 |
| 20260831094204 | 57 | 282 | 5.2 | 8.7 | 0.00 | 0.78 | 0.02 | 87 | 1013.3 |
| 20260831093704 | 57 | 300 | 4.3 | 10.4 | 0.00 | 0.78 | 0.02 | 88 | 1013.2 |
| 20260831093204 | 57 | 291 | 4.3 | 8.7 | 0.00 | 0.78 | 0.02 | 89 | 1013.2 |
| 20260831092704 | 57 | 293 | 3.5 | 8.7 | 0.00 | 0.78 | 0.02 | 90 | 1013.1 |
| 20260831092205 | 57 | 290 | 3.5 | 11.3 | 0.00 | 0.78 | 0.02 | 90 | 1013.0 |
| 20260831091204 | 57 | 286 | 5.2 | 11.3 | 0.00 | 0.78 | 0.02 | 91 | 1012.9 |
| 20260831090704 | 57 | 282 | 4.3 | 10.4 | 0.00 | 0.78 | 0.02 | 93 | 1012.9 |
| 20260831090204 | 57 | 279 | 6.1 | 10.4 | 0.00 | 0.78 | 0.02 | 93 | 1012.9 |
| 20260831085704 | 56 | 269 | 4.3 | 10.4 | 0.00 | 0.78 | 0.02 | 94 | 1012.8 |
| 20260831085204 | 56 | 299 | 4.3 | 10.4 | 0.00 | 0.78 | 0.02 | 95 | 1012.8 |
| 20260831084704 | 56 | 268 | 3.5 | 7.0 | 0.00 | 0.78 | 0.02 | 95 | 1012.6 |
| 20260831084204 | 56 | 278 | 3.5 | 7.8 | 0.00 | 0.78 | 0.02 | 95 | 1012.6 |
| 20260831083704 | 55 | 263 | 5.2 | 8.7 | 0.00 | 0.78 | 0.02 | 95 | 1012.5 |
| 20260831083204 | 55 | 266 | 3.5 | 7.8 | 0.00 | 0.78 | 0.02 | 95 | 1012.5 |
| 20260831082704 | 54 | 270 | 2.6 | 6.1 | 0.00 | 0.78 | 0.02 | 95 | 1012.5 |
| 20260831082204 | 54 | 264 | 4.3 | 7.8 | 0.00 | 0.78 | 0.02 | 95 | 1012.4 |
| 20260831081704 | 54 | 275 | 3.5 | 7.0 | 0.01 | 0.78 | 0.02 | 95 | 1012.4 |
| 20260831081204 | 54 | 255 | 4.3 | 7.8 | 0.01 | 0.78 | 0.02 | 96 | 1012.3 |
| 20260831080704 | 54 | 255 | 4.3 | 7.8 | 0.01 | 0.78 | 0.02 | 95 | 1012.2 |
| 20260831080204 | 54 | 266 | 2.6 | 7.0 | 0.01 | 0.78 | 0.02 | 95 | 1012.2 |
| 20260831075704 | 54 | 263 | 4.3 | 7.8 | 0.01 | 0.78 | 0.02 | 95 | 1012.2 |
| 20260831075204 | 53 | 260 | 4.3 | 6.1 | 0.01 | 0.78 | 0.02 | 95 | 1012.1 |
| 20260831074204 | 53 | 280 | 1.7 | 5.2 | 0.01 | 0.78 | 0.02 | 95 | 1012.1 |
| 20260831073704 | 53 | 274 | 2.6 | 7.0 | 0.01 | 0.78 | 0.02 | 95 | 1012.0 |
| 20260831073203 | 53 | 308 | 2.6 | 10.4 | 0.01 | 0.78 | 0.02 | 95 | 1012.0 |
| 20260831072704 | 53 | 276 | 2.6 | 8.7 | 0.01 | 0.78 | 0.02 | 95 | 1012.0 |
| 20260831072204 | 53 | 280 | 4.3 | 10.4 | 0.01 | 0.78 | 0.02 | 95 | 1011.9 |
| 20260831071704 | 53 | 281 | 5.2 | 7.8 | 0.00 | 0.77 | 0.01 | 95 | 1012.0 |
| 20260831071204 | 53 | 233 | 4.3 | 7.0 | 0.00 | 0.77 | 0.01 | 95 | 1011.7 |
| 20260831070704 | 53 | 253 | 5.2 | 8.7 | 0.00 | 0.77 | 0.01 | 95 | 1011.7 |
| 20260831070203 | 53 | 247 | 2.6 | 6.1 | 0.00 | 0.77 | 0.01 | 95 | 1011.5 |
| 20260831065205 | 52 | 233 | 2.6 | 4.3 | 0.00 | 0.77 | 0.01 | 95 | 1011.5 |
| 20260831064704 | 52 | 237 | 1.7 | 2.6 | 0.00 | 0.77 | 0.01 | 95 | 1011.3 |
| 20260831064204 | 52 | 229 | 2.6 | 4.3 | 0.00 | 0.77 | 0.01 | 95 | 1011.2 |
| 20260831063704 | 52 | 236 | 2.6 | 2.6 | 0.00 | 0.77 | 0.01 | 95 | 1011.2 |
| 20260831063204 | 53 | 237 | 2.6 | 4.3 | 0.00 | 0.77 | 0.01 | 95 | 1010.9 |
| 20260831062204 | 52 | 232 | 1.7 | 2.6 | 0.01 | 0.77 | 0.01 | 95 | 1010.9 |
| 20260831061704 | 52 | 256 | 1.7 | 2.6 | 0.01 | 0.77 | 0.01 | 95 | 1010.8 |
| 20260831061204 | 52 | 222 | 1.7 | 2.6 | 0.01 | 0.77 | 0.01 | 95 | 1010.8 |
| 20260831060705 | 52 | 223 | 1.7 | 2.6 | 0.01 | 0.77 | 0.01 | 95 | 1010.7 |
| 20260831055704 | 52 | 244 | 2.6 | 5.2 | 0.01 | 0.77 | 0.01 | 95 | 1010.7 |
| 20260831055204 | 52 | 267 | 1.7 | 4.3 | 0.01 | 0.77 | 0.01 | 95 | 1010.4 |
| 20260831054704 | 52 | 85 | 0.9 | 1.7 | 0.01 | 0.77 | 0.01 | 95 | 1010.3 |
| 20260831053704 | 52 | 257 | 1.7 | 2.6 | 0.01 | 0.77 | 0.01 | 95 | 1010.3 |
| 20260831053204 | 53 | 259 | 1.7 | 4.3 | 0.01 | 0.77 | 0.01 | 95 | 1010.1 |
| 20260831051704 | 53 | 247 | 2.6 | 2.6 | 0.00 | 0.76 | 0.00 | 95 | 1009.9 |
| 20260831051204 | 53 | 248 | 2.6 | 5.2 | 0.00 | 0.76 | 0.00 | 95 | 1009.9 |
| 20260831050703 | 53 | 251 | 2.6 | 5.2 | 0.00 | 0.76 | 0.00 | 95 | 1009.7 |
| 20260831050204 | 53 | 241 | 2.6 | 4.3 | 0.00 | 0.76 | 0.00 | 95 | 1009.7 |
| 20260831045704 | 53 | 248 | 2.6 | 7.0 | 0.00 | 0.76 | 0.00 | 95 | 1009.7 |
| 20260831044704 | 53 | 276 | 2.6 | 7.0 | 0.00 | 0.76 | 0.00 | 95 | 1009.5 |
| 20260831043204 | 53 | 338 | 0.9 | 4.3 | 0.00 | 0.76 | 0.00 | 95 | 1009.3 |
| 20260831042204 | 53 | 315 | 0.9 | 4.3 | 0.00 | 0.76 | 0.00 | 95 | 1009.1 |
| 20260831041704 | 53 | 300 | 0.9 | 2.6 | 0.00 | 0.76 | 0.00 | 95 | 1009.0 |
| 20260831040203 | 53 | 287 | 4.3 | 8.7 | 0.00 | 0.76 | 0.00 | 95 | 1008.7 |
| 20260831035705 | 53 | 299 | 3.5 | 10.4 | 0.00 | 0.76 | 0.00 | 95 | 1008.7 |
| 20260831035204 | 52 | 292 | 1.7 | 7.0 | 0.00 | 0.76 | 0.00 | 95 | 1008.8 |
| 20260831034705 | 52 | 299 | 1.7 | 5.2 | 0.00 | 0.76 | 0.00 | 95 | 1008.7 |
| 20260831034204 | 52 | 277 | 2.6 | 6.1 | 0.00 | 0.76 | 0.00 | 95 | 1008.5 |
| 20260831033705 | 52 | 275 | 1.7 | 5.2 | 0.00 | 0.76 | 0.00 | 95 | 1008.5 |
| 20260831033204 | 52 | 269 | 3.5 | 7.8 | 0.00 | 0.76 | 0.00 | 95 | 1008.4 |
| 20260831032704 | 53 | 267 | 2.6 | 7.0 | 0.00 | 0.76 | 0.00 | 95 | 1008.4 |
| 20260831032204 | 53 | 281 | 4.3 | 7.8 | 0.00 | 0.76 | 0.00 | 95 | 1008.4 |
| 20260831031704 | 53 | 289 | 1.7 | 4.3 | 0.00 | 0.76 | 0.00 | 95 | 1008.4 |
| 20260831030705 | 53 | 281 | 2.6 | 7.0 | 0.00 | 0.76 | 0.00 | 95 | 1008.2 |
| 20260831030204 | 53 | 292 | 1.7 | 6.1 | 0.00 | 0.76 | 0.00 | 95 | 1008.2 |
| 20260831025704 | 53 | 289 | 1.7 | 7.8 | 0.00 | 0.76 | 0.00 | 95 | 1008.1 |
| 20260831025205 | 53 | 285 | 2.6 | 7.8 | 0.00 | 0.76 | 0.00 | 95 | 1008.1 |
| 20260831024704 | 53 | 308 | 1.7 | 5.2 | 0.00 | 0.76 | 0.00 | 95 | 1008.1 |
| 20260831024203 | 54 | 278 | 1.7 | 5.2 | 0.00 | 0.76 | 0.00 | 95 | 1008.1 |
| 20260831023704 | 53 | 299 | 1.7 | 5.2 | 0.00 | 0.76 | 0.00 | 96 | 1008.1 |
| 20260831023205 | 53 | 276 | 0.9 | 2.6 | 0.00 | 0.76 | 0.00 | 96 | 1007.9 |
| 20260831021704 | 54 | 316 | 2.6 | 7.8 | 0.00 | 0.76 | 0.00 | 95 | 1007.8 |
| 20260831021204 | 54 | 297 | 2.6 | 7.0 | 0.00 | 0.76 | 0.00 | 96 | 1007.7 |
| 20260831015704 | 54 | 352 | 1.7 | 4.3 | 0.00 | 0.76 | 0.00 | 96 | 1007.4 |
| 20260831015204 | 54 | 261 | 0.9 | 4.3 | 0.00 | 0.76 | 0.00 | 96 | 1007.3 |
| 20260831014703 | 54 | 286 | 0.9 | 4.3 | 0.00 | 0.76 | 0.00 | 96 | 1007.1 |
| 20260831014204 | 55 | 298 | 1.7 | 4.3 | 0.00 | 0.76 | 0.00 | 96 | 1007.1 |
| 20260831013704 | 55 | 283 | 1.7 | 4.3 | 0.00 | 0.76 | 0.00 | 96 | 1007.1 |
| 20260831012704 | 55 | 318 | 1.7 | 2.6 | 0.00 | 0.76 | 0.00 | 96 | 1007.2 |
| 20260831012204 | 55 | 322 | 1.7 | 6.1 | 0.00 | 0.76 | 0.00 | 96 | 1007.1 |
| 20260831011704 | 55 | 310 | 1.7 | 2.6 | 0.00 | 0.76 | 0.00 | 96 | 1007.1 |
| 20260831011204 | 56 | 330 | 1.7 | 5.2 | 0.00 | 0.76 | 0.00 | 96 | 1007.1 |
| 20260831010205 | 56 | 294 | 0.9 | 6.1 | 0.00 | 0.76 | 0.00 | 96 | 1006.8 |
| 20260831005704 | 56 | 322 | 2.6 | 5.2 | 0.00 | 0.76 | 0.00 | 96 | 1006.8 |
| 20260831005204 | 56 | 314 | 3.5 | 6.1 | 0.00 | 0.76 | 0.00 | 96 | 1006.8 |
| 20260831004204 | 57 | 313 | 1.7 | 2.6 | 0.00 | 0.76 | 0.00 | 96 | 1006.6 |
| 20260831003704 | 57 | 309 | 2.6 | 6.1 | 0.00 | 0.76 | 0.00 | 96 | 1006.5 |
| 20260831003204 | 57 | 330 | 1.7 | 4.3 | 0.00 | 0.76 | 0.00 | 96 | 1006.3 |
| 20260831002704 | 56 | 281 | 1.7 | 7.0 | 0.00 | 0.76 | 0.00 | 96 | 1006.3 |
| 20260831002204 | 56 | 284 | 2.6 | 7.8 | 0.00 | 0.76 | 0.00 | 96 | 1006.3 |
| 20260831001704 | 56 | 280 | 0.9 | 5.2 | 0.00 | 0.76 | 0.00 | 96 | 1006.3 |
| 20260831001205 | 56 | 262 | 0.9 | 1.7 | 0.00 | 0.76 | 0.00 | 96 | 1006.2 |
| 20260831000704 | 56 | 283 | 1.7 | 2.6 | 0.00 | 0.76 | 0.00 | 96 | 1006.2 |
| 20260831000204 | 56 | 321 | 1.7 | 2.6 | 0.00 | 0.76 | 0.00 | 96 | 1006.1 |
| 20260830235704 | 56 | 305 | 0.9 | 1.7 | 0.00 | 0.76 | 0.00 | 96 | 1006.0 |
| 20260830234704 | 56 | 323 | 1.7 | 4.3 | 0.00 | 0.76 | 0.00 | 96 | 1005.9 |
| 20260830234204 | 56 | 327 | 1.7 | 2.6 | 0.00 | 0.76 | 0.00 | 96 | 1005.9 |
| 20260830233704 | 56 | 304 | 1.7 | 7.0 | 0.00 | 0.76 | 0.00 | 96 | 1005.8 |
| 20260830233204 | 56 | 327 | 1.7 | 2.6 | 0.00 | 0.76 | 0.00 | 96 | 1005.8 |
| 20260830232704 | 56 | 313 | 1.7 | 2.6 | 0.00 | 0.76 | 0.00 | 96 | 1005.6 |
| 20260830232204 | 56 | 280 | 0.9 | 2.6 | 0.02 | 0.76 | 0.00 | 96 | 1005.6 |
| 20260830231705 | 57 | 324 | 0.9 | 2.6 | 0.02 | 0.76 | 0.00 | 96 | 1005.5 |
| 20260830230705 | 57 | 278 | 1.7 | 2.6 | 0.08 | 0.76 | 0.00 | 96 | 1005.4 |
| 20260830230204 | 57 | 299 | 0.9 | 5.2 | 0.08 | 0.76 | 0.00 | 96 | 1005.3 |
| 20260830225704 | 57 | 273 | 1.7 | 4.3 | 0.08 | 0.76 | 0.76 | 96 | 1005.2 |
| 20260830225204 | 58 | 327 | 0.9 | 2.6 | 0.08 | 0.76 | 0.76 | 96 | 1005.0 |
| 20260830224704 | 58 | 333 | 1.7 | 6.1 | 0.08 | 0.76 | 0.76 | 96 | 1004.9 |
| 20260830224204 | 58 | 306 | 1.7 | 5.2 | 0.08 | 0.76 | 0.76 | 96 | 1004.8 |
| 20260830223705 | 58 | 323 | 2.6 | 5.2 | 0.08 | 0.76 | 0.76 | 96 | 1004.7 |
| 20260830223204 | 58 | 338 | 1.7 | 4.3 | 0.08 | 0.76 | 0.76 | 96 | 1004.6 |
| 20260830222704 | 58 | 321 | 0.9 | 4.3 | 0.08 | 0.76 | 0.76 | 96 | 1004.6 |
| 20260830222204 | 58 | 328 | 1.7 | 2.6 | 0.07 | 0.76 | 0.76 | 96 | 1004.5 |
| 20260830221203 | 58 | 281 | 0.9 | 8.7 | 0.06 | 0.74 | 0.74 | 96 | 1004.3 |
| 20260830220704 | 58 | 305 | 1.7 | 5.2 | 0.01 | 0.69 | 0.69 | 96 | 1004.3 |
| 20260830220204 | 58 | 329 | 0.0 | 0.9 | 0.00 | 0.69 | 0.69 | 96 | 1004.1 |
| 20260830215704 | 58 | 329 | 0.9 | 1.7 | 0.00 | 0.69 | 0.69 | 95 | 1004.1 |
| 20260830215204 | 58 | 332 | 1.7 | 2.6 | 0.00 | 0.69 | 0.69 | 95 | 1004.0 |
| 20260830214704 | 58 | 292 | 1.7 | 2.6 | 0.00 | 0.69 | 0.69 | 96 | 1004.0 |
| 20260830214204 | 58 | 331 | 0.9 | 2.6 | 0.00 | 0.69 | 0.69 | 96 | 1003.8 |
| 20260830213704 | 58 | 327 | 0.9 | 2.6 | 0.00 | 0.69 | 0.69 | 96 | 1003.8 |
| 20260830212704 | 58 | 13 | 0.9 | 2.6 | 0.00 | 0.69 | 0.69 | 95 | 1003.7 |
| 20260830212204 | 58 | 355 | 0.0 | 0.0 | 0.00 | 0.69 | 0.69 | 96 | 1003.6 |
| 20260830211704 | 58 | 355 | 0.0 | 0.0 | 0.00 | 0.69 | 0.69 | 96 | 1003.5 |
| 20260830211204 | 58 | 355 | 0.0 | 0.0 | 0.00 | 0.69 | 0.69 | 96 | 1003.5 |
| 20260830210204 | 58 | 355 | 0.0 | 0.0 | 0.00 | 0.69 | 0.69 | 95 | 1003.4 |
| 20260830205704 | 58 | 355 | 0.0 | 0.0 | 0.00 | 0.69 | 0.69 | 95 | 1003.4 |
| 20260830205204 | 57 | 355 | 0.0 | 0.0 | 0.00 | 0.69 | 0.69 | 95 | 1003.3 |
| 20260830204204 | 57 | 355 | 0.0 | 0.9 | 0.00 | 0.69 | 0.69 | 95 | 1003.2 |
| 20260830203704 | 57 | 355 | 0.0 | 1.7 | 0.00 | 0.69 | 0.69 | 95 | 1003.1 |
| 20260830203204 | 57 | 355 | 0.0 | 0.9 | 0.00 | 0.69 | 0.69 | 95 | 1003.1 |
| 20260830202704 | 57 | 355 | 0.0 | 0.9 | 0.00 | 0.69 | 0.69 | 95 | 1003.0 |
| 20260830202204 | 58 | 355 | 0.9 | 2.6 | 0.00 | 0.69 | 0.69 | 95 | 1003.0 |
| 20260830201704 | 58 | 5 | 0.0 | 1.7 | 0.00 | 0.69 | 0.69 | 95 | 1003.0 |
| 20260830201204 | 58 | 32 | 0.0 | 1.7 | 0.00 | 0.69 | 0.69 | 95 | 1002.9 |
| 20260830200704 | 58 | 14 | 0.9 | 2.6 | 0.00 | 0.69 | 0.69 | 95 | 1002.9 |
| 20260830200204 | 58 | 355 | 0.9 | 1.7 | 0.00 | 0.69 | 0.69 | 95 | 1002.8 |
| 20260830195703 | 58 | 20 | 0.9 | 1.7 | 0.00 | 0.69 | 0.69 | 95 | 1002.7 |
| 20260830195204 | 58 | 349 | 0.9 | 2.6 | 0.00 | 0.69 | 0.69 | 95 | 1002.6 |
| 20260830194704 | 58 | 10 | 0.9 | 2.6 | 0.01 | 0.69 | 0.69 | 95 | 1002.6 |
| 20260830194204 | 59 | 340 | 1.7 | 2.6 | 0.01 | 0.69 | 0.69 | 95 | 1002.4 |
| 20260830192704 | 59 | 0 | 1.7 | 2.6 | 0.02 | 0.69 | 0.69 | 95 | 1002.2 |
| 20260830192204 | 59 | 8 | 1.7 | 7.0 | 0.06 | 0.69 | 0.69 | 95 | 1002.2 |
| 20260830191203 | 59 | 13 | 1.7 | 2.6 | 0.06 | 0.69 | 0.69 | 94 | 1002.0 |
| 20260830190704 | 59 | 4 | 2.6 | 6.1 | 0.06 | 0.69 | 0.69 | 95 | 1001.9 |
| 20260830190204 | 59 | 7 | 5.2 | 10.4 | 0.06 | 0.69 | 0.69 | 94 | 1001.7 |
| 20260830185704 | 59 | 346 | 2.6 | 6.1 | 0.06 | 0.69 | 0.69 | 95 | 1001.7 |
| 20260830185203 | 59 | 8 | 1.7 | 5.2 | 0.06 | 0.69 | 0.69 | 94 | 1001.7 |
| 20260830184703 | 59 | 335 | 2.6 | 7.8 | 0.05 | 0.68 | 0.68 | 94 | 1001.6 |
| 20260830184204 | 59 | 17 | 2.6 | 7.8 | 0.05 | 0.68 | 0.68 | 94 | 1001.5 |
| 20260830183704 | 59 | 14 | 2.6 | 4.3 | 0.05 | 0.68 | 0.68 | 94 | 1001.4 |
| 20260830183204 | 59 | 357 | 2.6 | 7.8 | 0.05 | 0.68 | 0.68 | 94 | 1001.4 |
| 20260830182704 | 59 | 12 | 2.6 | 8.7 | 0.04 | 0.67 | 0.67 | 94 | 1001.3 |
| 20260830182203 | 60 | 5 | 3.5 | 7.0 | 0.00 | 0.63 | 0.63 | 94 | 1001.3 |
| 20260830181704 | 60 | 349 | 2.6 | 7.0 | 0.00 | 0.63 | 0.63 | 94 | 1001.2 |
| 20260830181205 | 60 | 327 | 1.7 | 5.2 | 0.00 | 0.63 | 0.63 | 94 | 1001.2 |
| 20260830180205 | 61 | 323 | 0.9 | 4.3 | 0.00 | 0.63 | 0.63 | 94 | 1001.1 |
| 20260830175704 | 61 | 333 | 1.7 | 5.2 | 0.00 | 0.63 | 0.63 | 94 | 1001.0 |
| 20260830175203 | 61 | 321 | 1.7 | 2.6 | 0.00 | 0.63 | 0.63 | 94 | 1001.0 |
| 20260830174704 | 61 | 344 | 0.9 | 4.3 | 0.00 | 0.63 | 0.63 | 94 | 1000.9 |
| 20260830174204 | 61 | 315 | 1.7 | 4.3 | 0.00 | 0.63 | 0.63 | 94 | 1000.9 |
| 20260830173703 | 61 | 282 | 0.9 | 2.6 | 0.00 | 0.63 | 0.63 | 94 | 1000.9 |
| 20260830172703 | 61 | 283 | 1.7 | 2.6 | 0.00 | 0.63 | 0.63 | 94 | 1000.8 |
| 20260830172204 | 60 | 270 | 0.9 | 2.6 | 0.00 | 0.63 | 0.63 | 94 | 1000.8 |
| 20260830171704 | 60 | 294 | 1.7 | 7.0 | 0.00 | 0.63 | 0.63 | 94 | 1000.8 |
| 20260830171204 | 60 | 266 | 2.6 | 5.2 | 0.00 | 0.63 | 0.63 | 94 | 1000.8 |
| 20260830165204 | 60 | 242 | 1.7 | 2.6 | 0.01 | 0.63 | 0.63 | 93 | 1000.4 |
| 20260830164704 | 60 | 230 | 0.9 | 2.6 | 0.01 | 0.63 | 0.63 | 93 | 1000.4 |
| 20260830164203 | 60 | 228 | 0.9 | 2.6 | 0.01 | 0.63 | 0.63 | 93 | 1000.4 |
| 20260830163203 | 59 | 202 | 1.7 | 2.6 | 0.01 | 0.63 | 0.63 | 93 | 1000.4 |
| 20260830162704 | 59 | 169 | 0.9 | 1.7 | 0.01 | 0.63 | 0.63 | 93 | 1000.4 |
| 20260830161704 | 59 | 137 | 0.9 | 2.6 | 0.03 | 0.63 | 0.63 | 93 | 1000.3 |
| 20260830161204 | 59 | 119 | 0.9 | 2.6 | 0.04 | 0.63 | 0.63 | 93 | 1000.3 |
| 20260830160705 | 59 | 107 | 0.9 | 1.7 | 0.08 | 0.62 | 0.62 | 93 | 1000.4 |
| 20260830160203 | 58 | 107 | 0.9 | 1.7 | 0.10 | 0.62 | 0.62 | 92 | 1000.5 |
| 20260830155704 | 58 | 100 | 1.7 | 2.6 | 0.15 | 0.62 | 0.62 | 92 | 1000.4 |
| 20260830155204 | 58 | 85 | 1.7 | 2.6 | 0.16 | 0.62 | 0.62 | 92 | 1000.3 |
| 20260830154704 | 58 | 105 | 0.9 | 1.7 | 0.23 | 0.62 | 0.62 | 92 | 1000.4 |
| 20260830153703 | 58 | 92 | 0.9 | 1.7 | 0.61 | 0.62 | 0.62 | 92 | 1000.4 |
| 20260830153204 | 58 | 137 | 0.9 | 2.6 | 0.61 | 0.62 | 0.62 | 92 | 1000.3 |
| 20260830152704 | 58 | 144 | 2.6 | 4.3 | 0.61 | 0.62 | 0.62 | 91 | 1000.2 |
| 20260830151704 | 58 | 164 | 1.7 | 2.6 | 0.59 | 0.61 | 0.61 | 91 | 1000.2 |
| 20260830150704 | 58 | 101 | 1.7 | 5.2 | 0.56 | 0.57 | 0.57 | 90 | 1000.2 |
| 20260830150205 | 59 | 101 | 3.5 | 6.1 | 0.52 | 0.54 | 0.54 | 90 | 1000.1 |
| 20260830145704 | 59 | 117 | 2.6 | 5.2 | 0.46 | 0.48 | 0.48 | 89 | 1000.3 |
| 20260830145204 | 59 | 25 | 2.6 | 5.2 | 0.45 | 0.46 | 0.46 | 89 | 1000.2 |
| 20260830144704 | 60 | 19 | 4.3 | 7.8 | 0.42 | 0.43 | 0.43 | 88 | 1000.1 |
| 20260830143704 | 62 | 13 | 3.5 | 7.0 | 0.01 | 0.02 | 0.02 | 87 | 1000.0 |
| 20260830143203 | 63 | 350 | 4.3 | 8.7 | 0.00 | 0.02 | 0.02 | 86 | 999.9 |
| 20260830142703 | 64 | 322 | 2.6 | 5.2 | 0.00 | 0.02 | 0.02 | 85 | 999.7 |
| 20260830142204 | 64 | 357 | 2.6 | 4.3 | 0.00 | 0.02 | 0.02 | 85 | 999.7 |
| 20260830141704 | 64 | 30 | 1.7 | 5.2 | 0.00 | 0.02 | 0.02 | 85 | 999.6 |
| 20260830140704 | 65 | 60 | 3.5 | 7.0 | 0.00 | 0.02 | 0.02 | 84 | 999.7 |
| 20260830140204 | 65 | 87 | 3.5 | 7.0 | 0.00 | 0.02 | 0.02 | 83 | 999.8 |
| 20260830135703 | 65 | 108 | 0.9 | 2.6 | 0.00 | 0.02 | 0.02 | 83 | 999.8 |
| 20260830135204 | 65 | 108 | 1.7 | 4.3 | 0.00 | 0.02 | 0.02 | 83 | 999.8 |